Regional Weather Roundup
Issued by NWS Little Rock, AR

Home | Current Version | Previous Version | Text Only | Print | Product List | Glossary On
Versions: 1 2 3 4 5 6 7 8 9 10 11 12 13 14 15 16 17 18 19 20 21 22 23 24 25 26 27 28 29 30 31 32 33 34 35 36 37 38 39 40 41 42 43 44 45 46 47 48 49 50
000
ASUS44 KLZK 080505
RWRLZK

WEATHER ROUNDUP FOR ARKANSAS
NATIONAL WEATHER SERVICE LITTLE ROCK AR
1200 AM CDT WED JUL 08 2015

NOTE: "FAIR" INDICATES FEW OR NO CLOUDS BELOW 12,000 FEET WITH NO
SIGNIFICANT WEATHER AND/OR OBSTRUCTIONS TO VISIBILITY.

ARZ001-003-010-029-080600-
NORTHWEST ARKANSAS

CITY           SKY/WX    TMP DP  RH WIND       PRES   REMARKS
FAYETTEVILLE   CLOUDY    69  69 100 CALM      30.02S
FORT SMITH     LGT RAIN  74  71  91 E6        29.99F
HARRISON       MOCLDY    71  71 100 SE6       30.05R
BENTONVILLE    CLOUDY   N/A N/A N/A SE5       30.02S
ROGERS         MOCLDY    71  70  96 SE6       30.03S
SILOAM SPGS    CLOUDY    72  66  83 SE5       30.02F
HIGHFILL       CLOUDY    72  71  97 SE7       30.02S
$$

ARZ004-005-016-080600-
NORTH CENTRAL ARKANSAS

CITY           SKY/WX    TMP DP  RH WIND       PRES   REMARKS
BATESVILLE     CLOUDY    73  70  88 SW9       30.05R
FLIPPIN        MOCLDY    72  68  88 CALM      30.02R
MTN HOME       MOCLDY    71  70  96 S5        30.03S
$$

ARZ040-041-080600-
WEST CENTRAL ARKANSAS

CITY           SKY/WX    TMP DP  RH WIND       PRES   REMARKS
MENA           MOCLDY    77  73  88 CALM      30.03F
MOUNT IDA      MOCLDY    74  72  93 CALM      30.00F
$$

ARZ009-017-025-026-028-080600-
NORTHEAST ARKANSAS

CITY           SKY/WX    TMP DP  RH WIND       PRES   REMARKS
JONESBORO      LGT RAIN  72  71  97 CALM      30.04R
NEWPORT        LGT RAIN  76  73  90 CALM      30.04F
WALNUT RIDGE   CLOUDY    73  70  88 S7        30.03S
BLYTHEVILLE    CLOUDY    74  72  93 S5        30.04S
$$

ARZ022-023-033-042-044-080600-
CENTRAL ARKANSAS

CITY           SKY/WX    TMP DP  RH WIND       PRES   REMARKS
LITTLE ROCK    CLOUDY    76  69  79 N9        30.05R
N LITTLE ROCK    N/A     72  72  99 NW6         N/A
JACKSONVILLE   LGT RAIN  73  72  94 VRB1      30.04F FOG
SEARCY         LGT RAIN  73  71  93 NW10G18   30.07R
HOT SPRINGS    MOCLDY    79  74  84 CALM      30.03R
RUSSELLVILLE   CLOUDY    72  71  97 CALM      30.02S
$$

ARZ036-080600-
EAST ARKANSAS

CITY           SKY/WX    TMP DP  RH WIND       PRES   REMARKS
WEST MEMPHIS   CLOUDY    80  75  84 S7        30.02S HX  85
$$

ARZ050-053-066-070-073-080600-
SOUTHWEST ARKANSAS

CITY           SKY/WX    TMP DP  RH WIND       PRES   REMARKS
ARKADELPHIA    FAIR      79  78  96 CALM      30.02S
CAMDEN         MOCLDY    81  72  74 MISG      30.03R
TEXARKANA      CLEAR     80  74  81 S10       30.02R HX  85
EL DORADO      MOCLDY    79  71  76 S8        30.05R
DE QUEEN       MOCLDY    74  72  93 CALM      29.99S
$$

ARZ056-057-069-080600-
SOUTHEAST ARKANSAS

CITY           SKY/WX    TMP DP  RH WIND       PRES   REMARKS
PINE BLUFF     MOCLDY    79  74  84 S8        30.04R
STUTTGART      PTCLDY    81  73  78 S8        30.03R HX  85
MONTICELLO     PTCLDY    79  75  87 S6        30.06R

$$





USA.gov is the U.S. government's official web portal to all federal, state and local government web resources and services.